Weather History for Rogers, AR

Change the Weather History Date:

Tuesday, July 23, 2013

  Actual Average Record
Temperature  
Mean Temperature 81 °F -  
Max Temperature 93 °F 84 °F 100 °F (2005)
Min Temperature 69 °F 67 °F 57 °F (2000)
Cooling Degree Days 16    
Growing Degree Days 31 (Base 50)    
Moisture  
Dew Point 70 °F    
Average Humidity 71    
Maximum Humidity 94    
Minimum Humidity 47    
Precipitation  
Precipitation 0.96 in - - ()
Sea Level Pressure  
Sea Level Pressure 29.88 in    
Wind  
Wind Speed 11 mph (SSW)    
Max Wind Speed 36 mph    
Max Gust Speed 59 mph    
Visibility 9 miles    
Events Rain , Thunderstorm    
Averages and records for this station are not official NWS values.
T = Trace of Precipitation, MM = Missing Value Source: NWS Daily Summary

Daily Weather History Graph

Daily Weather History Graph

Search for Another Location

Airport:

Trip Planner

Search our weather history database for the weather conditions in past years. The results will help you decide how hot, cold, wet, or windy it might be!

Date:

Astronomy

Jul. 23, 2013 Rise Set
Actual Time 6:16 AM CDT 8:29 PM CDT
Civil Twilight 5:47 AM CDT 8:58 PM CDT
Nautical Twilight 5:11 AM CDT 9:33 PM CDT
Astronomical Twilight 4:32 AM CDT 10:12 PM CDT
Moon 9:02 PM CDT (7/23) 7:22 AM CDT (7/23)
Length of Visible Light 15h 11m
Length of Day
14h 13m
Full, 99% of the Moon is Illuminated
Jul 23
Full
Jul 29
Last Quarter
Aug 6
New
Aug 14
First Quarter
Aug 20
Full

Hourly Weather History & Observations

Time (CDT) Temp. Heat Index Dew Point Humidity Pressure Visibility Wind Dir Wind Speed Gust Speed Precip Events Conditions
12:57 AM 78.1 °F - 69.1 °F 74% 29.91 in 10.0 mi SSW 8.1 mph - N/A   Clear
1:57 AM 78.1 °F - 70.0 °F 76% 29.90 in 10.0 mi South 6.9 mph - N/A   Clear
2:57 AM 78.1 °F - 70.0 °F 76% 29.88 in 10.0 mi SSW 10.4 mph - N/A   Clear
3:05 AM 78.8 °F - 69.8 °F 74% 29.93 in 10.0 mi South 10.4 mph - N/A Thunderstorm Clear
3:21 AM 78.8 °F - 69.8 °F 74% 29.93 in 10.0 mi SSW 10.4 mph - N/A   Clear
3:57 AM 78.1 °F - 70.0 °F 76% 29.87 in 10.0 mi SSW 9.2 mph - N/A   Clear
4:57 AM 78.1 °F - 70.0 °F 76% 29.88 in 10.0 mi SSW 9.2 mph - N/A   Mostly Cloudy
5:35 AM 78.8 °F - 69.8 °F 74% 29.93 in 10.0 mi SSW 8.1 mph - N/A Thunderstorm Mostly Cloudy
5:57 AM 77.0 °F - 70.0 °F 79% 29.87 in 10.0 mi SW 8.1 mph - N/A Thunderstorm Partly Cloudy
6:12 AM 75.2 °F - 69.8 °F 83% 29.93 in 10.0 mi SSW 4.6 mph - N/A   Clear
6:57 AM 77.0 °F - 70.0 °F 79% 29.89 in 10.0 mi South 4.6 mph - N/A   Clear
7:57 AM 81.0 °F 84.4 °F 70.0 °F 69% 29.90 in 10.0 mi SW 9.2 mph - N/A   Clear
8:57 AM 84.0 °F 88.4 °F 70.0 °F 63% 29.91 in 10.0 mi SW 12.7 mph - N/A   Clear
9:57 AM 87.1 °F 92.8 °F 71.1 °F 59% 29.92 in 10.0 mi WSW 10.4 mph - N/A   Clear
10:57 AM 90.0 °F 95.4 °F 70.0 °F 52% 29.91 in 10.0 mi WSW 13.8 mph 20.7 mph N/A   Clear
11:57 AM 91.9 °F 97.4 °F 70.0 °F 48% 29.90 in 10.0 mi West 9.2 mph 18.4 mph N/A   Clear
12:57 PM 93.0 °F 99.0 °F 70.0 °F 47% 29.88 in 10.0 mi WSW 10.4 mph 18.4 mph N/A   Scattered Clouds
1:57 PM 93.0 °F 99.0 °F 70.0 °F 47% 29.86 in 10.0 mi WNW 12.7 mph 17.3 mph N/A   Clear
2:57 PM 93.9 °F 100.8 °F 71.1 °F 47% 29.85 in 10.0 mi WNW 12.7 mph 17.3 mph N/A   Clear
3:57 PM 93.9 °F 102.1 °F 72.0 °F 49% 29.82 in 10.0 mi NW 11.5 mph - N/A   Partly Cloudy
4:57 PM 93.9 °F 103.4 °F 73.0 °F 51% 29.81 in 10.0 mi NNW 10.4 mph - N/A   Partly Cloudy
5:57 PM 93.0 °F 101.9 °F 73.0 °F 52% 29.80 in 10.0 mi NW 11.5 mph - N/A   Clear
6:57 PM 89.1 °F 97.0 °F 73.0 °F 59% 29.81 in 10.0 mi NNW 4.6 mph - N/A   Clear
7:57 PM 89.1 °F 97.0 °F 73.0 °F 59% 29.81 in 10.0 mi Calm Calm - N/A   Clear
8:57 PM 86.0 °F 93.8 °F 73.9 °F 67% 29.80 in 10.0 mi Calm Calm - N/A   Scattered Clouds
9:30 PM 84.2 °F 92.3 °F 75.2 °F 74% 29.87 in 10.0 mi East 17.3 mph - N/A Thunderstorm Mostly Cloudy
9:57 PM 80.1 °F 82.7 °F 68.0 °F 67% 29.82 in 10.0 mi East 25.3 mph 31.1 mph N/A Thunderstorm Thunderstorm
10:20 PM 73.4 °F - 66.2 °F 78% 29.93 in 1.8 mi ENE 35.7 mph 58.7 mph 0.17 in Rain , Thunderstorm Heavy Thunderstorms and Rain
10:24 PM 69.8 °F - 66.2 °F 88% 29.94 in 1.2 mi ESE 23.0 mph 58.7 mph 0.38 in Rain , Thunderstorm Heavy Thunderstorms and Rain
10:31 PM 69.8 °F - 66.2 °F 88% 29.92 in 2.5 mi ESE 16.1 mph 34.5 mph 0.49 in Rain , Thunderstorm Thunderstorms and Rain
10:34 PM 69.8 °F - 66.2 °F 88% 29.92 in 4.0 mi East 13.8 mph - 0.51 in Rain , Thunderstorm Thunderstorms and Rain
10:53 PM 71.6 °F - 68.0 °F 88% 29.93 in 7.0 mi SSE 17.3 mph - 0.73 in Rain , Thunderstorm Light Thunderstorms and Rain
10:57 PM 69.8 °F - 68.0 °F 94% 29.92 in 5.0 mi South 20.7 mph - 0.80 in Rain , Thunderstorm Heavy Thunderstorms and Rain
10:59 PM 70.0 °F - 68.0 °F 93% 29.86 in 5.0 mi SSE 21.9 mph - 0.83 in Rain , Thunderstorm Thunderstorms and Rain
11:08 PM 69.8 °F - 66.2 °F 88% 29.92 in 10.0 mi SE 13.8 mph - 0.01 in Rain , Thunderstorm Light Thunderstorms and Rain
11:57 PM 72.0 °F - 68.0 °F 87% 29.92 in 10.0 mi Variable 5.8 mph - 0.13 in Rain , Thunderstorm Light Thunderstorms and Rain